This demonstration page uses our WeatherBlox Daily Observations layout. Learn more.

Left ArrowRight Arrow

Hourly Observations for July 4, 2016

Temp ( °F °C ) Dew Point ( °F °C ) Humidity (%) Winds ( mph kmh ) Pressure ( in mb ) Visibility ( mi km ) Precip ( " mm )
12:53 am 00:53 Clear 77 25 73 22.8 88 88 Calm 30.01 1016 9 14 0.00 0.00
1:53 am 01:53 Clear with Mist and Fog 75 23.9 72 22.2 90 90 Calm 30.01 1016 6 10 0.00 0.00
2:53 am 02:53 Clear 77 25 71 21.7 82 82 Calm 30.02 1017 10 16 0.00 0.00
3:53 am 03:53 Clear 76 24.4 70 21.1 82 82 SW 3 6 30.00 1016 10 16 0.00 0.00
4:53 am 04:53 Clear 76 24.4 70 21.1 82 82 SSW 5 7 30.00 1016 10 16 0.00 0.00
6:53 am 06:53 Sunny 74 23.3 70 21.1 88 88 SW 5 7 30.05 1018 10 16 0.00 0.00
7:53 am 07:53 Sunny 76 24.4 71 21.7 85 85 SW 6 9 30.06 1018 10 16 0.00 0.00
8:53 am 08:53 Sunny 78 25.6 72 22.2 82 82 SW 7 11 30.07 1018 10 16 0.00 0.00
9:53 am 09:53 Sunny 83 28.3 72 22.2 70 70 WSW 7 11 30.06 1018 10 16 0.00 0.00
10:53 am 10:53 Sunny 86 30 72 22.2 63 63 SSW 8 13 30.05 1018 10 16 0.00 0.00
11:53 am 11:53 Mostly Cloudy 89 31.7 70 21.1 53 53 SSW 12 19 30.05 1018 10 16 0.00 0.00
12:53 pm 12:53 Mostly Cloudy 90 32.2 70 21.1 52 52 S 12 19 30.04 1017 10 16 0.00 0.00
1:53 pm 13:53 Partly Cloudy 91 32.8 69 20.6 49 49 S 9 15 30.01 1016 10 16 0.00 0.00
2:53 pm 14:53 Partly Cloudy 94 34.4 69 20.6 44 44 SW 10 17 29.99 1016 10 16 0.00 0.00
3:53 pm 15:53 Partly Cloudy 93 33.9 68 20 44 44 SW 10 17 29.99 1016 10 16 0.00 0.00
4:53 pm 16:53 Partly Cloudy 86 30 73 22.8 65 65 S 10 17 29.99 1016 10 16 0.03 0.76
5:33 pm 17:33 Partly Cloudy with Nearby Thunderstorms 89 31.7 74 23.3 61 61 S 8 13 29.94 1014 10 16 0.00 0.00
5:48 pm 17:48 Sunny 88 31 73 23 62 62 S 7 11 29.94 1014 10 16 0.00 0.00
5:53 pm 17:53 Sunny 87 30.6 73 22.8 63 63 S 7 11 29.97 1015 10 16 0.00 0.00
6:53 pm 18:53 Sunny 92 33.3 72 22.2 52 52 SSW 7 11 29.96 1015 10 16 0.00 0.00
7:53 pm 19:53 Sunny 92 33.3 68 20 46 46 SW 7 11 29.96 1015 10 16 0.00 0.00
8:53 pm 20:53 Clear 89 31.7 68 20 50 50 SSW 5 7 29.97 1015 10 16 0.00 0.00
9:53 pm 21:53 Clear 86 30 68 20 55 55 SSW 5 7 29.98 1015 10 16 0.00 0.00
10:53 pm 22:53 Clear 84 28.9 70 21.1 63 63 SSW 6 9 29.99 1016 10 16 0.00 0.00
11:53 pm 23:53 Clear 83 28.3 72 22.2 70 70 SSW 7 11 30.00 1016 10 16 0.00 0.00

Powered by AerisWeather